SCP
0 0 0 0 0 0 0 0 0 0 0 0 0 0 0 0 0 0 0 -0 -0 -0 -0 0 0 0 0 0 0 0 0 0 0 0 0 0 0 0 0 0 0 0 0
0 0 0 0 0 0 0 0 0 0 0 0 0 0 0 0 0 0 0 0 -0 -0 -0 -0 0 0 1 0 0 0 0 0 0 0 0 0 0 0 0 0 0 0 0
0 0 0 0 0 0 0 0 0 0 0 0 0 0 0 0 0 0 0 0 -0 -0 -0 -0 -0 0 0 0 0 0 0 0 0 0 0 0 0 0 0 0 0 0 0
0 0 0 0 0 0 0 0 0 0 0 0 0 0 0 0 0 0 0 0 -0 -0 -0 -0 -0 -0 0 0 0 0 0 0 0 0 0 0 0 0 0 0 0 0 0
0 0 -0 0 0 0 0 0 0 0 0 0 0 0 0 0 -0 0 0 0 -0 -0 -0 -0 -0 -0 0 0 0 0 0 0 0 0 0 0 0 0 0 0 0 0 0
0 0 0 0 0 0 0 0 0 0 0 0 0 0 0 0 -0 -0 0 -0 -0 -0 -0 -0 -0 -0 0 0 0 0 0 0 0 0 0 0 0 0 0 0 0 0 0
0 0 0 0 0 0 0 0 0 0 0 0 0 0 0 0 -0 -0 0 0 0 -0 -0 -0 -0 -0 -0 0 0 0 0 0 0 0 0 0 0 0 0 0 0 0 0
0 0 0 0 0 0 0 0 0 0 0 0 0 0 0 0 -0 0 0 0 0 -0 -0 -0 -0 -0 -0 -0 0 0 0 0 0 0 0 0 0 0 0 0 0 0 0
0 0 0 0 0 0 0 0 0 0 0 0 0 0 0 0 -0 -0 -0 0 0 0 -0 -0 -0 -0 -0 -0 0 0 0 0 0 0 0 0 0 0 0 0 0 0 0
0 0 0 0 0 0 0 0 0 0 0 0 0 0 0 0 0 0 -0 0 0 0 0 -0 -0 -0 -0 -0 -0 0 0 0 0 0 0 0 0 0 0 0 0 0 0
0 0 0 0 0 0 0 0 0 0 0 0 0 0 0 0 0 0 0 0 0 0 0 -0 0 -0 -0 -0 -0 0 0 0 0 0 0 0 0 0 0 0 0 0 0
0 0 0 0 0 0 0 0 0 0 0 0 0 0 0 0 0 0 0 0 0 0 0 0 -0 -0 -0 -0 -0 -0 0 0 0 0 0 0 0 0 0 0 0 0 0
0 0 0 0 0 0 0 0 0 0 0 0 0 0 0 0 0 0 0 -0 0 0 0 0 0 -0 -0 -0 -0 -0 0 0 0 0 0 0 0 0 0 0 0 0 0
0 0 0 0 0 0 0 0 0 0 0 0 0 0 0 0 0 0 0 0 0 -0 -0 -0 0 0 -0 -0 0 -0 0 0 0 0 0 0 0 0 0 0 0 0 0
0 0 0 0 0 0 0 0 0 0 0 0 0 0 0 0 -0 -0 0 0 0 0 -0 -0 -0 -0 -0 -0 -0 -0 -0 0 0 0 0 0 0 0 0 0 0 0 0
0 0 0 0 0 0 0 0 0 0 0 0 0 0 0 0 0 -0 0 0 0 -0 0 -0 -0 -0 -0 -0 0 0 -0 0 0 0 0 0 0 0 0 0 0 0 0
0 0 0 0 0 0 0 0 0 0 0 0 0 0 0 0 0 0 0 0 -0 -0 0 0 0 -0 -0 0 0 0 0 0 0 0 0 0 0 0 0 0 0 0 0
0 0 0 0 0 0 0 0 0 0 0 0 0 0 0 0 0 0 0 0 0 -0 0 0 0 -0 -0 -0 0 0 0 -0 0 0 0 0 0 0 0 0 0 0 0
0 0 0 0 0 0 0 0 0 0 0 0 0 0 0 0 0 0 0 0 0 -0 0 0 0 0 -0 -0 0 0 0 0 0 0 0 0 0 0 0 0 0 0 0
0 0 0 0 0 0 0 0 0 0 0 0 0 0 0 0 0 0 0 0 0 0 0 0 0 0 0 0 0 0 0 0 0 0 0 0 0 0 0 0 0 0 0
0 0 0 0 0 0 0 0 0 0 0 0 0 0 0 0 0 0 0 -0 0 0 0 0 0 0 0 0 0 0 0 0 0 0 0 0 0 0 0 0 0 0 0
0 0 0 0 0 0 0 0 0 0 0 0 0 0 0 0 0 0 -0 0 0 0 0 0 0 0 0 0 0 0 0 0 0 0 0 0 0 0 0 0 0 0 0
0 0 0 0 0 0 0 0 0 0 0 0 0 0 0 0 0 0 -0 -0 0 0 0 0 0 0 0 0 0 0 0 0 0 0 0 0 0 0 0 0 0 0 0
0 0 0 0 0 0 0 0 0 0 0 -0 0 0 0 0 0 0 0 -0 -0 0 0 0 0 0 0 0 0 0 0 0 0 0 0 0 0 0 0 0 0 0 0
0 0 0 0 0 0 0 0 0 0 0 -0 -0 -0 -0 0 0 0 0 -0 -0 -0 -0 -0 0 0 0 0 0 0 0 0 0 0 0 0 0 0 0 0 0 0 0
0 0 0 0 0 0 0 0 0 0 -0 -0 -0 -0 -0 0 0 0 -0 -0 -0 -0 -0 0 0 0 0 0 0 0 0 0 0 0 0 0 0 0 0 0 0 0 0
Wind_Speed_500mb
30 35 32 39 57 67 62 76 77 83 84 82 83 84 88 87 84 88 83 92 71 76 84 61 77 94 84 91 90 85 91 84 84 87 80 80 79 76 78 97 91 48 55
33 33 35 47 71 74 75 87 84 88 90 86 85 93 93 91 89 85 86 92 90 81 88 97 83 94 100 97 92 95 100 98 101 98 72 54 68 74 68 65 84 87 69
29 29 34 55 81 78 81 85 87 91 95 87 86 108 94 90 85 91 84 85 85 89 82 81 107 81 93 100 122 107 110 110 104 103 96 46 31 72 78 65 64 77 79
26 30 42 72 78 76 80 87 87 95 94 78 101 92 86 102 90 91 91 93 84 81 83 59 88 103 64 94 93 113 118 109 106 108 99 79 77 82 48 72 63 75 77
27 36 57 66 77 74 83 85 93 92 92 102 97 97 101 92 109 102 87 92 87 80 82 79 65 89 88 87 104 121 111 119 113 127 102 73 65 90 85 76 79 72 77
30 52 61 68 76 80 86 86 90 95 98 96 112 105 104 91 82 87 94 94 89 80 77 84 69 68 109 72 92 108 115 125 123 121 130 109 82 90 88 81 90 95 90
51 53 62 73 74 87 82 93 105 113 118 117 103 94 95 95 98 81 69 84 80 73 79 82 61 68 74 76 72 105 114 125 124 122 130 120 107 92 97 85 85 92 93
39 53 60 73 77 77 89 97 109 120 122 117 107 95 89 89 86 88 84 72 63 72 77 76 78 61 73 90 95 99 107 97 134 128 125 119 108 106 105 102 98 82 88
43 53 66 73 66 82 90 97 102 120 113 110 105 95 88 85 83 81 91 89 62 59 74 79 83 75 63 54 86 32 114 109 105 122 131 131 109 110 114 114 118 100 77
49 56 66 61 77 77 96 99 105 104 105 114 92 97 85 88 93 85 86 88 81 59 63 75 78 73 64 65 67 90 79 107 105 124 129 131 121 114 106 111 113 102 90
49 60 68 67 81 75 90 102 113 114 114 104 102 97 94 84 79 83 82 73 71 67 55 66 83 74 63 63 54 73 51 103 107 119 132 134 125 105 108 110 107 113 108
53 71 61 87 84 87 102 112 123 124 121 116 112 93 105 81 90 72 70 69 74 71 63 43 64 66 62 59 54 50 88 89 125 111 128 140 138 116 113 104 108 109 105
62 70 70 86 83 87 104 113 115 121 122 123 109 110 93 84 81 87 82 78 70 79 74 58 41 66 60 58 53 50 60 75 120 137 130 136 138 131 120 111 113 109 115
63 62 84 94 90 88 104 115 120 116 121 119 110 111 103 92 85 79 77 79 65 70 84 81 60 45 60 63 56 53 64 47 116 132 131 134 139 139 123 118 117 111 109
53 60 85 92 93 96 109 116 115 120 124 123 116 108 102 95 88 90 76 67 61 69 75 92 95 73 62 69 56 58 47 53 113 110 121 130 139 140 135 131 121 114 107
49 70 84 93 93 98 113 119 120 122 123 118 117 107 101 99 93 88 77 63 62 76 75 81 94 100 81 83 72 59 54 94 98 126 130 133 137 146 139 142 132 125 117
62 73 82 92 100 104 107 116 119 122 118 113 117 104 100 94 94 88 84 77 78 68 73 75 84 102 101 95 93 71 65 85 83 130 133 135 138 134 140 139 124 118 113
66 72 82 91 94 98 103 110 114 116 111 111 114 101 101 100 96 90 83 82 75 71 67 77 74 86 86 94 94 82 74 94 71 131 134 139 140 137 136 133 127 116 109
58 65 72 81 90 95 101 107 114 116 107 107 122 108 100 94 89 83 78 74 74 68 66 70 70 54 76 82 91 74 80 85 78 124 126 138 135 134 134 131 126 123 115
55 63 69 76 85 92 97 104 110 117 115 123 127 102 86 83 83 80 76 70 65 62 57 64 58 62 56 76 79 68 74 74 90 135 132 138 132 138 142 134 127 131 118
57 61 67 75 81 90 98 105 109 112 117 121 121 98 90 91 88 86 81 70 59 47 52 56 53 47 60 66 67 66 73 73 104 126 127 121 132 127 143 138 144 133 117
57 63 72 80 81 85 93 102 107 112 117 121 117 100 97 91 80 75 64 62 52 48 49 48 52 50 49 54 60 65 80 79 111 120 118 130 135 124 133 138 132 126 112
58 64 72 80 83 85 88 98 104 111 115 118 116 102 98 87 82 70 56 52 47 42 46 43 43 40 42 45 52 62 78 89 112 126 131 120 121 119 123 126 127 124 119
55 63 71 77 83 85 86 89 97 103 109 114 113 102 98 96 86 70 53 43 41 54 56 56 52 53 47 44 41 59 72 100 115 119 117 108 108 110 118 122 116 121 124
49 56 62 69 77 82 85 88 93 98 104 107 108 101 94 93 91 79 64 47 35 43 35 45 55 56 52 40 34 57 73 106 109 113 106 102 105 108 119 115 116 115 115
48 54 57 64 72 77 81 85 87 91 95 101 103 97 91 91 87 87 80 44 41 34 20 26 42 50 44 30 31 46 61 92 96 95 101 95 100 109 112 112 109 105 108
Wind_Direction_500mb
7 2 357 355 345 347 335 336 328 327 323 317 315 317 306 304 299 304 299 302 296 290 285 284 265 257 234 215 209 210 211 210 205 190 192 194 192 192 195 197 209 197 181
5 2 355 349 347 345 334 334 329 325 321 315 308 313 307 297 297 298 299 299 299 298 303 272 285 255 235 216 214 208 198 196 192 184 178 169 185 191 194 196 205 200 190
0 354 348 351 347 341 332 330 326 323 320 315 305 308 303 297 293 295 293 294 296 302 307 276 272 300 252 215 208 206 200 191 193 195 186 165 177 185 192 189 186 193 200
359 346 349 350 340 332 328 327 329 322 321 315 308 311 303 298 295 291 291 291 293 294 301 298 274 275 280 245 205 209 206 204 193 196 194 196 194 177 179 198 191 201 199
352 347 357 341 332 330 328 327 325 325 315 310 308 305 303 294 299 293 290 289 289 290 297 302 288 278 275 272 205 195 204 204 194 196 186 189 184 188 178 179 195 199 205
350 356 345 328 330 328 328 329 327 322 318 311 308 301 293 295 298 295 292 287 285 288 283 296 302 271 266 300 233 212 207 202 203 197 198 197 184 186 183 180 189 193 194
1 345 332 329 329 330 331 324 328 327 325 322 318 313 306 294 288 292 298 293 280 285 282 293 303 278 280 276 245 205 203 207 202 201 201 198 193 197 189 178 176 181 187
346 335 328 328 327 330 324 325 328 330 329 325 320 316 311 308 296 286 285 294 302 284 281 285 290 300 279 273 291 229 216 201 196 204 200 194 196 193 189 185 181 175 175
338 333 328 326 326 324 322 324 324 328 328 324 321 316 312 310 305 298 285 280 292 299 281 286 291 303 294 272 261 312 208 206 201 201 202 203 191 193 197 199 194 180 177
338 330 325 325 324 321 322 325 324 325 325 325 319 317 310 305 306 303 290 276 282 296 294 279 283 295 293 285 269 272 265 205 204 198 199 198 190 193 195 203 211 207 191
331 326 326 320 325 319 323 324 327 327 328 327 318 320 308 312 305 301 303 283 277 278 292 278 279 286 293 288 268 261 238 207 207 200 198 199 193 189 194 202 207 208 205
329 326 320 322 325 324 327 329 331 328 331 325 323 317 316 303 307 305 304 296 275 276 274 289 270 270 279 295 266 256 259 220 208 209 196 201 196 191 196 199 207 208 200
327 326 317 324 323 324 327 329 328 327 327 327 320 318 315 306 300 294 288 290 288 269 258 261 283 270 276 283 276 263 248 220 200 201 197 200 203 199 204 204 208 207 207
324 319 317 324 325 323 327 330 329 326 325 326 319 317 316 311 306 302 295 289 286 279 262 255 257 269 274 273 280 262 234 256 200 199 206 205 209 207 202 199 201 203 202
322 316 320 324 324 325 330 331 328 330 328 327 326 319 314 311 305 304 302 288 285 282 277 258 253 254 259 270 276 264 265 270 206 204 204 211 213 207 208 202 201 203 204
314 318 324 325 325 328 333 331 332 330 331 330 326 323 313 311 308 306 304 288 282 284 285 267 255 254 253 258 268 270 271 232 213 203 201 208 212 210 212 212 215 210 205
317 323 324 326 329 332 333 332 331 334 333 328 329 321 317 310 306 302 298 293 279 276 282 276 255 250 249 253 262 268 270 225 221 208 201 200 210 211 214 212 213 215 217
322 324 325 326 328 332 335 332 335 335 331 330 329 321 318 313 307 302 297 296 289 276 272 277 266 251 250 253 259 264 268 229 238 205 209 203 207 210 213 209 205 211 215
318 320 322 325 329 336 336 336 338 338 333 332 332 330 321 319 316 313 310 304 292 277 263 269 271 253 247 251 255 260 260 228 231 205 212 206 209 210 211 209 206 210 214
318 321 326 330 337 339 340 338 340 342 338 338 338 334 334 330 326 321 316 311 299 282 266 268 253 244 242 244 253 251 253 229 216 204 212 215 216 211 209 209 209 211 212
325 329 331 337 343 343 342 342 343 343 341 342 340 340 343 340 329 321 317 316 307 283 275 273 246 256 247 248 247 239 233 228 209 203 205 211 213 215 211 210 206 214 213
332 335 338 341 347 350 345 343 345 345 346 346 343 347 349 337 336 329 326 319 305 287 285 271 252 255 258 251 246 243 215 216 209 211 211 211 214 217 216 213 213 214 216
337 340 341 341 349 352 350 346 346 348 346 350 345 351 346 346 343 339 336 338 319 296 281 266 267 270 269 265 253 232 214 213 211 205 208 212 214 216 216 212 216 213 215
340 342 342 345 348 351 352 351 350 350 349 353 348 353 348 349 348 348 342 337 347 317 290 279 268 265 269 272 245 223 211 211 214 213 215 216 217 216 217 212 220 220 218
340 343 345 346 349 351 354 354 354 354 354 356 351 354 352 349 348 350 349 342 331 347 321 286 280 281 290 271 245 217 210 205 209 210 212 215 215 213 212 213 215 217 218
342 345 348 348 351 352 355 356 357 359 360 359 355 357 356 352 351 352 351 4 358 3 322 265 275 275 275 274 256 218 211 208 205 206 206 209 210 207 208 208 210 214 217
Wind_Speed_850mb
30 35 32 39 57 67 62 76 77 83 84 82 83 84 88 87 84 88 83 92 71 76 84 61 77 94 84 91 90 85 91 84 84 87 80 80 79 76 78 97 91 48 55
33 33 35 47 71 74 75 87 84 88 90 86 85 93 93 91 89 85 86 92 90 81 88 97 83 94 100 97 92 95 100 98 101 98 72 54 68 74 68 65 84 87 69
29 29 34 55 81 78 81 85 87 91 95 87 86 108 94 90 85 91 84 85 85 89 82 81 107 81 93 100 122 107 110 110 104 103 96 46 31 72 78 65 64 77 79
26 30 42 72 78 76 80 87 87 95 94 78 101 92 86 102 90 91 91 93 84 81 83 59 88 103 64 94 93 113 118 109 106 108 99 79 77 82 48 72 63 75 77
27 36 57 66 77 74 83 85 93 92 92 102 97 97 101 92 109 102 87 92 87 80 82 79 65 89 88 87 104 121 111 119 113 127 102 73 65 90 85 76 79 72 77
30 52 61 68 76 80 86 86 90 95 98 96 112 105 104 91 82 87 94 94 89 80 77 84 69 68 109 72 92 108 115 125 123 121 130 109 82 90 88 81 90 95 90
51 53 62 73 74 87 82 93 105 113 118 117 103 94 95 95 98 81 69 84 80 73 79 82 61 68 74 76 72 105 114 125 124 122 130 120 107 92 97 85 85 92 93
39 53 60 73 77 77 89 97 109 120 122 117 107 95 89 89 86 88 84 72 63 72 77 76 78 61 73 90 95 99 107 97 134 128 125 119 108 106 105 102 98 82 88
43 53 66 73 66 82 90 97 102 120 113 110 105 95 88 85 83 81 91 89 62 59 74 79 83 75 63 54 86 32 114 109 105 122 131 131 109 110 114 114 118 100 77
49 56 66 61 77 77 96 99 105 104 105 114 92 97 85 88 93 85 86 88 81 59 63 75 78 73 64 65 67 90 79 107 105 124 129 131 121 114 106 111 113 102 90
49 60 68 67 81 75 90 102 113 114 114 104 102 97 94 84 79 83 82 73 71 67 55 66 83 74 63 63 54 73 51 103 107 119 132 134 125 105 108 110 107 113 108
53 71 61 87 84 87 102 112 123 124 121 116 112 93 105 81 90 72 70 69 74 71 63 43 64 66 62 59 54 50 88 89 125 111 128 140 138 116 113 104 108 109 105
62 70 70 86 83 87 104 113 115 121 122 123 109 110 93 84 81 87 82 78 70 79 74 58 41 66 60 58 53 50 60 75 120 137 130 136 138 131 120 111 113 109 115
63 62 84 94 90 88 104 115 120 116 121 119 110 111 103 92 85 79 77 79 65 70 84 81 60 45 60 63 56 53 64 47 116 132 131 134 139 139 123 118 117 111 109
53 60 85 92 93 96 109 116 115 120 124 123 116 108 102 95 88 90 76 67 61 69 75 92 95 73 62 69 56 58 47 53 113 110 121 130 139 140 135 131 121 114 107
49 70 84 93 93 98 113 119 120 122 123 118 117 107 101 99 93 88 77 63 62 76 75 81 94 100 81 83 72 59 54 94 98 126 130 133 137 146 139 142 132 125 117
62 73 82 92 100 104 107 116 119 122 118 113 117 104 100 94 94 88 84 77 78 68 73 75 84 102 101 95 93 71 65 85 83 130 133 135 138 134 140 139 124 118 113
66 72 82 91 94 98 103 110 114 116 111 111 114 101 101 100 96 90 83 82 75 71 67 77 74 86 86 94 94 82 74 94 71 131 134 139 140 137 136 133 127 116 109
58 65 72 81 90 95 101 107 114 116 107 107 122 108 100 94 89 83 78 74 74 68 66 70 70 54 76 82 91 74 80 85 78 124 126 138 135 134 134 131 126 123 115
55 63 69 76 85 92 97 104 110 117 115 123 127 102 86 83 83 80 76 70 65 62 57 64 58 62 56 76 79 68 74 74 90 135 132 138 132 138 142 134 127 131 118
57 61 67 75 81 90 98 105 109 112 117 121 121 98 90 91 88 86 81 70 59 47 52 56 53 47 60 66 67 66 73 73 104 126 127 121 132 127 143 138 144 133 117
57 63 72 80 81 85 93 102 107 112 117 121 117 100 97 91 80 75 64 62 52 48 49 48 52 50 49 54 60 65 80 79 111 120 118 130 135 124 133 138 132 126 112
58 64 72 80 83 85 88 98 104 111 115 118 116 102 98 87 82 70 56 52 47 42 46 43 43 40 42 45 52 62 78 89 112 126 131 120 121 119 123 126 127 124 119
55 63 71 77 83 85 86 89 97 103 109 114 113 102 98 96 86 70 53 43 41 54 56 56 52 53 47 44 41 59 72 100 115 119 117 108 108 110 118 122 116 121 124
49 56 62 69 77 82 85 88 93 98 104 107 108 101 94 93 91 79 64 47 35 43 35 45 55 56 52 40 34 57 73 106 109 113 106 102 105 108 119 115 116 115 115
48 54 57 64 72 77 81 85 87 91 95 101 103 97 91 91 87 87 80 44 41 34 20 26 42 50 44 30 31 46 61 92 96 95 101 95 100 109 112 112 109 105 108
Wind_Direction_850mb
7 2 357 355 345 347 335 336 328 327 323 317 315 317 306 304 299 304 299 302 296 290 285 284 265 257 234 215 209 210 211 210 205 190 192 194 192 192 195 197 209 197 181
5 2 355 349 347 345 334 334 329 325 321 315 308 313 307 297 297 298 299 299 299 298 303 272 285 255 235 216 214 208 198 196 192 184 178 169 185 191 194 196 205 200 190
0 354 348 351 347 341 332 330 326 323 320 315 305 308 303 297 293 295 293 294 296 302 307 276 272 300 252 215 208 206 200 191 193 195 186 165 177 185 192 189 186 193 200
359 346 349 350 340 332 328 327 329 322 321 315 308 311 303 298 295 291 291 291 293 294 301 298 274 275 280 245 205 209 206 204 193 196 194 196 194 177 179 198 191 201 199
352 347 357 341 332 330 328 327 325 325 315 310 308 305 303 294 299 293 290 289 289 290 297 302 288 278 275 272 205 195 204 204 194 196 186 189 184 188 178 179 195 199 205
350 356 345 328 330 328 328 329 327 322 318 311 308 301 293 295 298 295 292 287 285 288 283 296 302 271 266 300 233 212 207 202 203 197 198 197 184 186 183 180 189 193 194
1 345 332 329 329 330 331 324 328 327 325 322 318 313 306 294 288 292 298 293 280 285 282 293 303 278 280 276 245 205 203 207 202 201 201 198 193 197 189 178 176 181 187
346 335 328 328 327 330 324 325 328 330 329 325 320 316 311 308 296 286 285 294 302 284 281 285 290 300 279 273 291 229 216 201 196 204 200 194 196 193 189 185 181 175 175
338 333 328 326 326 324 322 324 324 328 328 324 321 316 312 310 305 298 285 280 292 299 281 286 291 303 294 272 261 312 208 206 201 201 202 203 191 193 197 199 194 180 177
338 330 325 325 324 321 322 325 324 325 325 325 319 317 310 305 306 303 290 276 282 296 294 279 283 295 293 285 269 272 265 205 204 198 199 198 190 193 195 203 211 207 191
331 326 326 320 325 319 323 324 327 327 328 327 318 320 308 312 305 301 303 283 277 278 292 278 279 286 293 288 268 261 238 207 207 200 198 199 193 189 194 202 207 208 205
329 326 320 322 325 324 327 329 331 328 331 325 323 317 316 303 307 305 304 296 275 276 274 289 270 270 279 295 266 256 259 220 208 209 196 201 196 191 196 199 207 208 200
327 326 317 324 323 324 327 329 328 327 327 327 320 318 315 306 300 294 288 290 288 269 258 261 283 270 276 283 276 263 248 220 200 201 197 200 203 199 204 204 208 207 207
324 319 317 324 325 323 327 330 329 326 325 326 319 317 316 311 306 302 295 289 286 279 262 255 257 269 274 273 280 262 234 256 200 199 206 205 209 207 202 199 201 203 202
322 316 320 324 324 325 330 331 328 330 328 327 326 319 314 311 305 304 302 288 285 282 277 258 253 254 259 270 276 264 265 270 206 204 204 211 213 207 208 202 201 203 204
314 318 324 325 325 328 333 331 332 330 331 330 326 323 313 311 308 306 304 288 282 284 285 267 255 254 253 258 268 270 271 232 213 203 201 208 212 210 212 212 215 210 205
317 323 324 326 329 332 333 332 331 334 333 328 329 321 317 310 306 302 298 293 279 276 282 276 255 250 249 253 262 268 270 225 221 208 201 200 210 211 214 212 213 215 217
322 324 325 326 328 332 335 332 335 335 331 330 329 321 318 313 307 302 297 296 289 276 272 277 266 251 250 253 259 264 268 229 238 205 209 203 207 210 213 209 205 211 215
318 320 322 325 329 336 336 336 338 338 333 332 332 330 321 319 316 313 310 304 292 277 263 269 271 253 247 251 255 260 260 228 231 205 212 206 209 210 211 209 206 210 214
318 321 326 330 337 339 340 338 340 342 338 338 338 334 334 330 326 321 316 311 299 282 266 268 253 244 242 244 253 251 253 229 216 204 212 215 216 211 209 209 209 211 212
325 329 331 337 343 343 342 342 343 343 341 342 340 340 343 340 329 321 317 316 307 283 275 273 246 256 247 248 247 239 233 228 209 203 205 211 213 215 211 210 206 214 213
332 335 338 341 347 350 345 343 345 345 346 346 343 347 349 337 336 329 326 319 305 287 285 271 252 255 258 251 246 243 215 216 209 211 211 211 214 217 216 213 213 214 216
337 340 341 341 349 352 350 346 346 348 346 350 345 351 346 346 343 339 336 338 319 296 281 266 267 270 269 265 253 232 214 213 211 205 208 212 214 216 216 212 216 213 215
340 342 342 345 348 351 352 351 350 350 349 353 348 353 348 349 348 348 342 337 347 317 290 279 268 265 269 272 245 223 211 211 214 213 215 216 217 216 217 212 220 220 218
340 343 345 346 349 351 354 354 354 354 354 356 351 354 352 349 348 350 349 342 331 347 321 286 280 281 290 271 245 217 210 205 209 210 212 215 215 213 212 213 215 217 218
342 345 348 348 351 352 355 356 357 359 360 359 355 357 356 352 351 352 351 4 358 3 322 265 275 275 275 274 256 218 211 208 205 206 206 209 210 207 208 208 210 214 217